Home   Weather   Aqtobe   Past weeks

Flag for Kazakhstan Past Weather in Aqtobe, Kazakhstan — Yesterday and Last 2 Weeks

Now
46 °F

Clear.


Feels Like: 45 °F
Forecast: 43 / 59 °F
Wind: 3 mph from West

Location: Aktjubinsk

Current Time: Sep 30, 2016 at 9:55:50 PM

Latest Report: Sep 30, 2016 at 9:00 PM


Visibility: 10 mi

Pressure: 29.92 "Hg

Humidity: 87%

Dew Point: 43 °F

Location of AqtobeLocation

Past Weather in Aqtobe — Graph

°F

Aqtobe Temperature Yesterday

Maximum temperature yesterday: 55 °F (at 12:00 PM)
Minimum temperature yesterday: 45 °F (at 6:00 AM)
Average temperature yesterday: 49 °F

High & Low Weather Summary for the Past Weeks

 TemperatureHumidityPressure
High84 °F (Sep 22, 3:30 PM)100% (Sep 16, 4:00 AM)30.12 "Hg (Sep 16, 4:00 AM)
Low41 °F (Sep 16, 3:30 AM)20% (Sep 25, 3:00 PM)29.62 "Hg (Sep 16, 2:00 AM)
Average56 °F67%29.92 "Hg
* Reported Sep 15 8:00 PM — Sep 30 8:30 PM, Aqtobe, Weather by CustomWeather, © 2016

Note: Actual official high and low records may vary slightly from our data, if they occured in-between our weather recording intervals... More about our weather records

Advertising

Aqtobe Weather History for the Previous 24 Hours

Scroll right to see more
 ConditionsComfort  
Time TempWeatherWind HumidityBarometerVisibility
8:30 PM
Fri, Sep 30
46 °FClear.3 mph87%29.92 "Hg10 mi
8:00 PM46 °FPassing clouds.1 mph87%29.92 "HgN/A
7:30 PM46 °FPassing clouds.6 mph87%29.89 "HgN/A
7:00 PM48 °FPartly cloudy.6 mph87%29.89 "HgN/A
6:30 PM50 °FBroken clouds.6 mph82%29.89 "HgN/A
6:00 PM48 °FBroken clouds.6 mph87%29.86 "HgN/A
5:30 PM50 °FBroken clouds.3 mph82%29.86 "HgN/A
5:00 PM50 °FSprinkles. Broken clouds.6 mph82%29.86 "HgN/A
4:30 PM52 °FSprinkles. Broken clouds.6 mph77%29.86 "HgN/A
4:00 PM52 °FBroken clouds.No wind77%29.83 "HgN/A
3:30 PM50 °FSprinkles. Broken clouds.6 mph82%29.83 "HgN/A
3:00 PM54 °FBroken clouds.6 mph67%29.83 "HgN/A
2:30 PM52 °FBroken clouds.6 mph77%29.83 "HgN/A
2:00 PM54 °FBroken clouds.8 mph77%29.80 "HgN/A
1:30 PM54 °FBroken clouds.10 mph72%29.80 "HgN/A
1:00 PM52 °FBroken clouds.6 mph77%29.80 "HgN/A
12:30 PM52 °FBroken clouds.6 mph77%29.80 "HgN/A
12:00 PM50 °FBroken clouds.6 mph82%29.80 "HgN/A
11:30 AM50 °FBroken clouds.6 mph82%29.80 "HgN/A
11:00 AM50 °FBroken clouds.3 mph82%29.77 "HgN/A
10:30 AM50 °FBroken clouds.3 mph88%29.77 "HgN/A
10:00 AM48 °FPartly sunny.3 mph94%29.77 "HgN/A
9:30 AM48 °FSprinkles. Broken clouds.3 mph94%29.77 "HgN/A
9:00 AM48 °FPartly sunny.6 mph87%29.77 "HgN/A
8:30 AM46 °FBroken clouds.1 mph93%29.77 "HgN/A
8:00 AM46 °FSprinkles. Partly sunny.3 mph93%29.74 "HgN/A
7:30 AM45 °FSprinkles. Broken clouds.3 mph100%29.74 "HgN/A
7:00 AM46 °FPartly cloudy.6 mph93%29.74 "HgN/A
6:30 AM46 °FSprinkles. Partly cloudy.3 mph93%29.74 "Hg6 mi
6:00 AM46 °FFog.6 mph93%29.74 "Hg3 mi
5:30 AM46 °FPassing clouds.3 mph93%29.71 "HgN/A
5:00 AM46 °FPassing clouds.6 mph93%29.71 "HgN/A
4:30 AM46 °FPassing clouds.3 mph93%29.71 "HgN/A
4:00 AM46 °FLight rain. Passing clouds.3 mph93%29.71 "HgN/A
3:30 AM46 °FPassing clouds.3 mph93%29.71 "HgN/A
3:00 AM46 °FPassing clouds.6 mph93%29.71 "HgN/A
2:30 AM46 °FLight rain. Passing clouds.6 mph93%29.71 "HgN/A
2:00 AM46 °FPassing clouds.3 mph93%29.71 "HgN/A
1:30 AM46 °FPassing clouds.6 mph93%29.71 "HgN/A
1:00 AM46 °FPartly cloudy.6 mph93%29.71 "HgN/A
12:30 AM46 °FPartly cloudy.3 mph93%29.71 "HgN/A
12:00 AM46 °FPartly cloudy.3 mph93%29.71 "HgN/A
11:30 PM
Thu, Sep 29
46 °FPartly cloudy.3 mph93%29.71 "HgN/A
11:00 PM46 °FPartly cloudy.1 mph93%29.71 "HgN/A
10:30 PM48 °FSprinkles. Mostly cloudy.3 mph94%29.71 "Hg6 mi
10:00 PM48 °FSprinkles. Mostly cloudy.3 mph94%29.71 "Hg3 mi
9:30 PM48 °FSprinkles. Mostly cloudy.3 mph94%29.71 "Hg3 mi
9:00 PM48 °FMostly cloudy.6 mph94%29.71 "HgN/A
Weather by CustomWeather, © 2016

See weather overviewHow to use our weather pages